Location: Unspecified
(12.6500°N, 0.0000°E)
Time: 11:18:39
(UTC+00:00)

X-37B - Visible Passes

Search period start: 20 September 2020 00:00
Search period end: 30 September 2020 00:00
Orbit: 386 x 387 km, 45.0° (Epoch: 18 September)

Date Brightness Start Highest point End Pass type
(mag) Time Alt. Az. Time Alt. Az. Time Alt. Az.
25 Sep 3.5 19:27:14 10° SSW 19:27:22 11° SSW 19:27:22 11° SSW visible
26 Sep 2.8 05:16:49 10° NNW 05:19:29 25° NE 05:22:11 10° ESE visible
26 Sep 2.5 18:29:50 10° S 18:31:46 15° SE 18:32:33 14° ESE visible
27 Sep 3.7 04:20:02 10° NNE 04:20:51 11° NE 04:21:39 10° NE visible
27 Sep 1.0 19:06:31 10° SW 19:09:37 60° NW 19:10:02 53° N visible
28 Sep 0.7 04:56:24 15° NW 04:58:56 75° NE 05:02:05 10° SE visible
28 Sep 1.1 18:08:07 10° SSW 18:11:06 41° SE 18:14:06 10° ENE visible
29 Sep 3.3 04:01:33 20° E 04:01:33 20° E 04:03:03 10° ESE visible
29 Sep 3.0 18:46:35 10° W 18:49:04 21° NW 18:51:34 10° N visible
